Location: Kellogg
(38.0159°N, 90.0546°W)
Time: 03:56:45
(UTC+00:00)

SR - Pass Details

Date: 22 September 2024
Orbit: 578 x 855 km, 66.7° (Epoch: 08 October)

Event Time Altitude Azimuth Distance (km) Brightness Sun altitude
Rises 02:43:50 0° 330° (NNW) 2,992 ? -32.2°
Reaches altitude 10° 02:46:04 10° 329° (NNW) 2,117 ? -32.6°
Enters shadow 02:48:37 32° 324° (NW) 1,183 ? -33.0°
